Powrót do katalogu

OV1-9

AktywnyMilitariaPO
NORAD 2610·PAYLOAD·🇺🇸 United States

Wystrzelony Dec 11, 1966 z Vandenberg Space Force Base

Loading…

Następne Przeloty (najbliższe 24 godziny)

TLE

ŚwieżeSource: Space-Track

Epoka: Sep 14, 2026, 07:56 UTC

1 02610U 66111A   26257.33095597  .00000474  00000-0  20023-3 0  9992
2 02610  99.1108  25.2946 2271364 240.7957  94.7283 10.39947890242300

Śledź OV1-9 w czasie rzeczywistym z AllMySat

Download on the App Store